Location: ??????
(55.7522°N, 37.6156°E)
Time: 17:22:52
(UTC+00:00)

BREEZE-M DEB (TANK) - Pass Details

Date: 14 June 2025
Orbit: 308 x 13773 km, 49.5° (Epoch: 12 July)

Event Time Altitude Azimuth Distance (km) Brightness Sun altitude
Exits shadow 23:26:11 - 241° (WSW) 3,270 6.1 -7.2°
Reaches altitude 10° 23:28:58 10° 230° (SW) 1,940 4.8 -7.0°
Maximum altitude 23:31:52 22° 176° (S) 918 3.3 -6.8°
Drops below altitude 10° 23:33:49 10° 119° (ESE) 1,250 4.5 -6.7°
Sets 23:35:35 0° 101° (E) 2,032 5.8 -6.6°
